Location: Vibo Valentia
(38.6670°N, 16.1000°E)
Time: 02:24:42
(UTC+02:00)

STARLINK-1353 - Pass Details

Date: 30 May 2020
Orbit: 531 x 535 km, 53.0° (Epoch: 13 July)

Event Time Altitude Azimuth Distance (km) Brightness Sun altitude
Exits shadow 00:48:06 10° 63° (ENE) 1,782 6.5 -29.5°
Drops below altitude 10° 00:48:07 10° 63° (ENE) 1,786 6.5 -29.5°
Enters shadow 01:50:48 -58° 233° (SW) 11,421 10.3 -28.0°
